Snowfall_Accumulation
0.0 0.0 0.0 0.0 0.0 0.0 0.0 0.0 0.0 0.0 0.0 0.0 0.0 0.0 0.0 0.0 0.0 0.0 0.0 0.0 0.0 0.0 0.0 0.0 0.0 0.0 0.0
0.0 0.3 0.4 0.1 0.2 0.0 0.0 0.0 0.0 0.0 0.0 0.0 0.0 0.0 0.0 0.0 0.0 0.0 0.0 0.0 0.0 0.0 0.0 0.0 0.0 0.0 0.0
0.3 0.8 1.3 0.9 2.0 1.6 1.1 0.0 0.0 0.0 0.0 0.0 0.0 0.0 0.0 0.0 0.0 0.0 0.0 0.0 0.0 0.0 0.0 0.0 0.0 0.0 0.0
0.3 1.0 0.8 0.5 0.3 0.4 0.4 0.2 0.0 0.0 0.0 0.0 0.0 0.0 0.0 0.0 0.0 0.0 0.0 0.0 0.0 0.0 0.0 0.0 0.0 0.0 0.0
0.9 0.3 0.3 0.3 0.3 0.2 0.1 0.0 0.0 0.0 0.0 0.0 0.0 0.0 0.0 0.0 0.0 0.0 0.0 0.0 0.0 0.0 0.0 0.0 0.0 0.0 0.0
0.4 0.0 0.0 0.0 0.0 0.0 0.2 0.3 0.6 0.0 0.0 0.0 0.0 0.1 0.0 0.0 0.0 0.0 0.0 0.0 0.0 0.0 0.0 0.0 0.0 0.0 0.0
0.0 0.0 0.0 0.0 0.4 0.3 0.7 0.8 0.1 0.0 0.0 0.0 0.0 0.0 0.0 0.0 0.0 0.0 0.0 0.0 0.0 0.0 0.0 0.0 0.0 0.0 0.0
0.0 0.0 0.1 0.1 0.3 0.3 0.3 0.2 0.0 0.0 0.0 0.1 0.0 0.0 0.0 0.0 0.0 0.0 0.0 0.0 0.0 0.0 0.0 0.0 0.0 0.0 0.0
0.0 0.0 0.0 0.0 0.0 0.0 0.2 0.5 0.3 0.0 0.0 0.0 0.0 0.0 0.0 0.0 0.0 0.0 0.0 0.0 0.0 0.0 0.0 0.0 0.0 0.0 0.0
0.0 0.0 0.0 0.0 0.0 0.0 0.1 1.7 1.2 0.9 0.0 1.0 0.0 0.3 1.8 0.0 0.0 0.0 0.0 0.0 0.0 0.0 0.0 0.0 0.0 0.0 0.1
0.0 0.0 0.0 0.0 0.0 0.0 0.0 1.1 3.6 2.6 0.0 3.3 4.4 0.2 3.1 0.4 0.0 0.0 0.0 0.0 0.0 0.0 0.0 0.0 0.1 0.1 0.8
0.1 0.0 0.0 0.0 0.0 0.0 0.0 0.0 0.1 1.4 0.3 0.5 8.7 2.2 5.4 3.3 0.1 0.0 0.0 0.0 0.0 0.0 0.0 0.0 0.0 0.0 0.1
0.0 0.0 0.0 0.0 0.0 0.0 0.0 0.0 0.0 0.0 0.0 0.0 1.1 2.2 5.3 5.7 2.6 0.2 0.0 0.0 0.0 0.1 0.2 0.4 0.6 0.4 0.8
0.3 0.1 0.0 0.0 0.1 0.0 0.2 0.0 0.6 0.0 0.0 0.0 0.0 1.1 5.1 1.9 3.0 2.1 0.0 0.7 0.2 0.3 0.7 0.4 0.2 0.4 0.9
0.1 0.3 0.0 0.0 0.1 0.0 0.2 0.7 2.5 2.4 2.9 1.3 0.0 0.0 0.2 1.1 4.2 0.0 0.0 0.0 0.0 0.9 1.3 1.4 0.2 1.1 1.0
1.1 1.1 1.7 1.6 1.3 2.5 2.3 2.7 3.8 2.1 3.7 3.8 3.9 5.3 5.0 4.2 0.0 3.3 2.5 0.6 0.7 0.3 1.0 4.5 2.6 0.4 0.2
3.4 3.4 4.4 3.6 3.8 3.8 2.9 3.1 3.5 2.3 4.0 4.6 6.4 10.0 13.5 6.8 2.2 1.0 5.4 5.0 2.1 1.6 1.5 2.9 3.9 1.6 0.8